Flag for U.S.A. Weather past 2 weeks in Norfolk, Virginia, U.S.A.

Now
72 °F

Mostly cloudy.


Feels Like: 74 °F
Forecast: 67 / 75 °F
Wind: 14 mph from Northeast

Location: Norfolk Naval Air Station

Current Time: Sep 17, 2014 at 10:01:31 AM

Latest Report: Sep 17, 2014 at 8:59 AM


Visibility: 10 mi

Pressure: 30.02 "Hg

Humidity: 73%

Dew point: 63 °F

Location of NorfolkLocation

Historic Weather in Norfolk — Graph

°F

Norfolk temperature yesterday

Maximum temperature yesterday: 80 °F (at 1:59 PM)
Minimum temperature yesterday: 69 °F (at 12:59 AM)
Average temperature yesterday: 74 °F

Past Weeks' High & Low Weather Summary

 TemperatureHumidityPressure
High97 °F (Sep 2, 2:59 PM)97% (Sep 9, 3:59 AM)30.29 "Hg (Sep 9, 3:59 AM)
Low64 °F (Sep 15, 12:59 AM)37% (Sep 2, 2:59 PM)29.91 "Hg (Sep 2, 5:59 PM)
Average77 °F74%30.08 "Hg
* Reported Sep 2 8:59 AM — Sep 17 8:59 AM, Norfolk, Weather by CustomWeather, © 2014

Note: Actual official high and low records may vary slightly from our data, if they occured in-between our weather recording intervals... More about our weather records

Advertising

Norfolk weather history for previous 24 hours

 ConditionsComfort  
Time TempWeatherWind HumidityBarometerVisibility
8:59 AM
Sep 17
72 °FMostly cloudy.14 mph73%30.02 "Hg10 mi
7:59 AM72 °FCloudy.10 mph71%30.02 "Hg10 mi
6:59 AM71 °FPartly cloudy.8 mph71%30.00 "Hg10 mi
5:59 AM71 °FMostly cloudy.8 mph68%29.99 "Hg10 mi
4:59 AM71 °FMostly cloudy.9 mph68%29.99 "Hg10 mi
3:59 AM71 °FOvercast.12 mph71%29.99 "Hg10 mi
2:59 AM72 °FOvercast.9 mph71%29.99 "Hg10 mi
1:59 AM72 °FOvercast.12 mph59%29.99 "Hg10 mi
12:59 AM72 °FPassing clouds.14 mph55%30.01 "Hg10 mi
11:59 PM
Sep 16
73 °FMostly cloudy.14 mph55%30.01 "Hg10 mi
10:59 PM74 °FMostly cloudy.12 mph60%30.01 "Hg10 mi
9:59 PM74 °FPassing clouds.12 mph62%29.99 "Hg10 mi
8:59 PM74 °FPassing clouds.14 mph64%29.99 "Hg10 mi
7:59 PM76 °FBroken clouds.16 mph64%29.98 "Hg10 mi
6:59 PM74 °FPartly sunny.8 mph69%29.97 "Hg10 mi
5:59 PM78 °FBroken clouds.9 mph60%29.97 "Hg10 mi
4:59 PM79 °FBroken clouds.7 mph58%29.98 "Hg10 mi
3:59 PM80 °FPartly sunny.No wind54%29.98 "Hg10 mi
2:59 PM79 °FPartly sunny.3 mph56%29.98 "Hg10 mi
1:59 PM80 °FPartly sunny.7 mph49%30.00 "Hg10 mi
12:59 PM79 °FScattered clouds.7 mph50%30.01 "Hg10 mi
11:59 AM77 °FPassing clouds.No wind64%30.02 "Hg10 mi
10:59 AM75 °FPassing clouds.5 mph71%30.03 "Hg10 mi
Weather by CustomWeather, © 2014

See weather overviewHow to use our weather pages